Regional Weather Roundup
Issued by NWS

Home | Current Version | Previous Version | Text Only | Print | Product List | Glossary Off
Versions: 1 2 3 4 5 6 7 8 9 10 11 12 13 14 15 16 17 18 19 20 21 22 23 24 25 26 27 28 29 30 31 32 33 34 35 36 37 38 39 40 41 42 43 44 45 46 47 48 49 50

000
ASUS43 KLOT 201008
RWRIL

ILLINOIS REGIONAL WEATHER ROUNDUP
NATIONAL WEATHER SERVICE CHICAGO/ROMEOVILLE IL
400 AM CST TUE FEB 20 2018

NOTE: "FAIR" INDICATES FEW OR NO CLOUDS BELOW 12,000 FEET WITH NO
SIGNIFICANT WEATHER AND/OR OBSTRUCTIONS TO VISIBILITY.

* THESE STATIONS ARE NOT UNDER NWS QUALITY CONTROL. THEY ALSO MAY NOT
  REPORT WEATHER SUCH AS PRECIPITATION OR FOG.

ILZ001-002-007-009-015-016-024-201100-
NORTHWEST ILLINOIS

CITY           SKY/WX    TMP DP  RH WIND       PRES   REMARKS
MOLINE         HVY RAIN  40  39  97 E3        29.77F FOG
STERLING*        N/A    N/A N/A N/A MISG        N/A
SAVANNA*       RAIN      37  37  99 S6        29.79R WCI  32
$$

ILZ003-004-008-010-011-017-018-201100-
NORTH CENTRAL ILLINOIS

CITY           SKY/WX    TMP DP  RH WIND       PRES   REMARKS
ROCKFORD       LGT RAIN  44  44 100 S3        29.79S VSB 1/2
FREEPORT*      LGT RAIN  39  39 100 S8        29.78S WCI  33
ROCHELLE*      LGT RAIN  41  41 100 SE9       29.77F VSB 3/4
DE KALB*       LGT RAIN  44  44 100 S3        29.79F VSB 1/2
PERU*          HVY RAIN  46  46  97 CALM      29.81F
$$

ILZ005-006-012>014-019>023-201100-
NORTHEAST ILLINOIS

CITY           SKY/WX    TMP DP  RH WIND       PRES   REMARKS
CHICAGO-OHARE  RAIN      60  58  92 SW17      29.81S FOG
CHICAGO-MIDWAY LGT RAIN  61  59  93 SW16G26   29.83R
AURORA         RAIN      54  54 100 SW6       29.80F VSB 3/4
LANSING*       LGT RAIN  58  58 100 SW12      29.85F
JOLIET*        RAIN      60  58  96 SW8G18    29.84S
WAUKEGAN       LGT RAIN  57  57 100 SW13      29.79S FOG
DUPAGE AIRPORT CLOUDY    56  56 100 S8        29.81S FOG
KANKAKEE*      LGT RAIN  59  58  97 S18G25    29.86R
WHEELING       RAIN      60  59  96 SW14      29.82S FOG
MORRIS*        RAIN      58  56  94 SW12      29.81F
ROMEOVILLE*    RAIN      58  56  94 SW16G25   29.83R
NORTHERLY ISL    N/A     60  57  89 SW13        N/A
$$

LMZ740>746-201100-
SOUTHERN LAKE MICHIGAN

STATION/POSITION SKY/WX   TEMP    WIND        PRES    VSBY  WAVE
                          AIR SEA DIR/SP/G                  HT/PER
                          (F)     (DEG/KT/KT) (MB)    (MI)  (FT/S)
HARRISON CRIB              60     200/ 20/ 21   N/A
BURNHAM HARBOR             60     200/ 12/ 17   N/A
CALUMET HARBOR             59     200/ 16/ 21 1009.8R
BURNS HARBOR               58     190/ 14/ 19 1011.2S
MICHIGAN CITY              59     190/ 18/ 21   N/A
$$

ILZ025>027-034>036-040-047-049-050-058-095>099-201100-
WEST-CENTRAL ILLINOIS

CITY           SKY/WX    TMP DP  RH WIND       PRES   REMARKS
QUINCY         CLOUDY    50  50 100 CALM      29.78S
GALESBURG*     RAIN      41  41 100 CALM      29.80F
MACOMB*        CLOUDY    43  43 100 CALM      29.81F FOG
JACKSONVILLE*  RAIN      62  59  89 S14       29.82R
PITTSFIELD*    MOCLDY    63  60  92 S12       29.80F
$$

ILZ028>032-037-038-041>044-048-051>054-059>061-201100-
CENTRAL ILLINOIS

CITY           SKY/WX    TMP DP  RH WIND       PRES   REMARKS
PONTIAC        RAIN      62  61  98 S22G28    29.84S
BLOOMINGTON    LGT RAIN  60  58  92 S23G31    29.84R
DECATUR        MOCLDY    63  57  81 S23G33    29.84F
PEORIA         CLOUDY    60  59  96 S9        29.81R
LACON*         HVY RAIN  56  56 100 SW3       29.80S
LINCOLN*       RAIN      62  60  94 S8        29.83R
SPRINGFIELD    TSTM      63  63 100 S20G26    29.84R FOG
TAYLORVILLE    FAIR      62  56  83 S21G28    29.84F
$$

ILZ033-039-045-046-055>057-062-063-201100-
EAST-CENTRAL ILLINOIS

CITY           SKY/WX    TMP DP  RH WIND       PRES   REMARKS
CHAMPAIGN      MOCLDY    62  58  86 S24G33    29.86F
DANVILLE*      MOCLDY    64  58  82 S28G38    29.87S
RANTOUL*       CLOUDY    64  60  87 S23G31    29.86F
MATTOON        FAIR      62  57  83 S15G25    29.89F
PARIS*         FAIR      62  58  88 S20G26    29.94S
$$

ILZ079-100>102-201100-
SOUTHWEST ILLINOIS

CITY           SKY/WX    TMP DP  RH WIND       PRES   REMARKS
ALTON          CLOUDY    64  58  81 S15G22    29.86S
BELLEVILLE     MOCLDY    67  56  68 SW24G30   29.87R
CAHOKIA*         N/A    N/A N/A N/A MISG      29.86R
SPARTA*        FAIR      66  60  81 S18G30    29.94R
$$

ILZ064>066-069>071-074>076-080>082-084>086-088>090-092>094-201100-
SOUTH-CENTRAL ILLINOIS

CITY           SKY/WX    TMP DP  RH WIND       PRES   REMARKS
CARBONDALE     CLOUDY    68  61  78 S26G39    29.98S
CAIRO*         CLOUDY    66  60  82 S10       30.03R
EFFINGHAM*     MOCLDY    65  60  85 SE14G23   29.94F
MARION         CLOUDY    67  62  86 S17G29    30.01R
MT. VERNON     FAIR      66  60  81 S22       29.96S
CENTRALIA*     FAIR      68  61  77 S23G30    29.93R
SALEM*         FAIR      68  59  73 S16G26    29.93S
METROPOLIS*    CLOUDY    69  60  75 S15G21    30.05R
$$

ILZ067-068-072-073-078-083-087-091-201100-
SOUTHEAST ILLINOIS

CITY           SKY/WX    TMP DP  RH WIND       PRES   REMARKS
LAWRENCEVILLE  FAIR      64  58  80 S17       30.00R
FLORA*         FAIR      65  60  83 S16G22    29.97R
FAIRFIELD*     FAIR      64  59  86 S8        29.99R
HARRISBURG*    CLOUDY    69  61  76 S17G23    30.02R
ROBINSON*      FAIR      64  58  83 S18G24    29.98S
CARMI*         FAIR      64  59  83 S15       30.02R
$$

ABBREVIATIONS USED IN REMARKS
   TC - TEMPERATURE IN CELSIUS
  WCI - WIND CHILL INDEX
   HX - HEAT INDEX
  VSB - VISIBILITY
$$




USA.gov is the U.S. government's official web portal to all federal, state and local government web resources and services.